EDT,Max TemperatureF,Mean TemperatureF,Min TemperatureF,Max Dew PointF,MeanDew PointF,Min DewpointF,Max Humidity, Mean Humidity, Min Humidity, Max Sea Level PressureIn, Mean Sea Level PressureIn, Min Sea Level PressureIn, Max VisibilityMiles, Mean VisibilityMiles, Min VisibilityMiles, Max Wind SpeedMPH, Mean Wind SpeedMPH, Max Gust SpeedMPH,PrecipitationIn, CloudCover, Events, WindDirDegrees
2012-9-1,84,71,60,65,62,53,96,81,36,30.08,29.98,29.87,10,4,0,10,1,,0.01,5,Fog,24
2012-9-2,79,66,54,61,55,46,90,71,33,30.14,30.08,30.05,10,10,9,9,2,,0.00,4,Rain,33
2012-9-3,82,66,52,72,53,48,94,75,32,30.22,30.15,29.96,10,8,1,10,2,16,0.01,5,,177
2012-9-4,68,64,60,63,60,53,94,87,63,30.11,30.03,29.81,10,7,1,15,3,21,0.62,8,Rain,124
2012-9-5,78,69,60,72,63,57,100,84,61,29.88,29.78,29.62,10,7,0,12,3,18,0.14,6,Fog-Rain,331
2012-9-6,82,72,62,67,62,61,96,87,52,29.92,29.86,29.78,10,4,0,12,2,,0.01,4,Fog,174
2012-9-7,84,70,59,66,61,54,100,86,37,29.95,29.89,29.85,10,4,0,4,0,,0.00,4,Fog,178
2012-9-8,82,72,61,68,63,58,94,79,49,29.84,29.67,29.50,10,8,0,22,7,37,0.70,6,Fog-Rain,179
2012-9-9,75,64,54,58,52,46,94,74,37,29.88,29.81,29.69,10,10,9,10,4,16,0.01,2,,318
2012-9-10,66,55,46,53,45,39,93,68,40,30.08,29.97,29.89,10,10,10,18,4,26,0.00,6,,322
2012-9-11,75,56,39,48,42,37,89,66,31,30.26,30.19,30.09,10,10,10,10,2,,0.00,0,,329
2012-9-12,80,61,42,56,46,39,100,80,32,30.37,30.31,30.25,10,5,0,8,1,,0.00,2,Fog,184
2012-9-13,84,64,46,62,50,45,100,83,37,30.35,30.31,30.21,10,4,0,8,1,,0.01,1,Fog,173
2012-9-14,82,66,51,61,53,48,96,83,39,30.26,30.19,30.01,10,4,0,12,1,,0.00,3,Fog,191
2012-9-15,70,57,45,57,47,41,89,62,40,30.06,30.02,29.95,10,10,6,15,5,23,0.00,4,,302
2012-9-16,68,54,39,45,39,30,93,76,25,30.11,30.06,30.00,10,6,0,12,2,,0.00,3,Fog,345
2012-9-17,78,58,37,56,43,35,100,82,39,30.12,30.06,29.96,10,5,0,9,2,,0.00,3,Fog,168
2012-9-18,71,60,48,66,54,46,94,87,78,30.01,29.86,29.56,10,4,0,22,2,30,1.10,6,Fog-Rain,168
2012-9-19,68,55,39,65,46,36,92,66,34,30.23,29.94,29.61,10,10,10,13,7,24,0.03,4,Rain,305
2012-9-20,66,52,39,47,41,37,96,83,40,30.30,30.23,30.12,10,5,0,10,1,,0.01,4,Fog,51
2012-9-21,72,58,44,50,46,40,93,74,42,30.16,30.10,30.01,10,10,10,12,2,16,0.00,3,,171
2012-9-22,72,58,44,61,50,42,96,83,57,30.02,29.91,29.77,10,7,0,10,3,17,0.22,4,Fog-Rain,199
2012-9-23,66,54,41,58,48,37,100,78,37,30.09,29.91,29.78,10,7,1,13,3,18,0.05,3,Rain,205
2012-9-24,64,50,37,43,38,35,100,85,34,30.15,30.10,30.03,10,4,0,12,1,16,0.00,3,Fog,169
2012-9-25,72,52,33,45,38,30,93,77,36,30.11,30.08,30.04,10,8,0,15,1,21,0.00,2,Fog,184
2012-9-26,70,58,46,58,54,43,94,82,63,30.07,30.00,29.96,10,10,5,16,5,20,0.02,6,Rain,184
2012-9-27,64,52,41,57,46,37,94,74,39,30.26,30.13,29.99,10,10,6,13,5,20,0.01,4,Rain,356
2012-9-28,53,44,37,49,43,36,93,90,86,30.27,30.19,30.04,10,5,1,6,1,,0.38,8,Rain,13
2012-9-29,59,54,51,54,51,48,94,88,78,30.02,29.94,29.88,10,6,1,5,2,,0.10,8,Rain,360
2012-9-30,57,54,52,54,52,46,94,90,80,29.91,29.78,29.64,10,7,2,9,1,,0.21,8,Rain,175